Location: Lobstick
(53.6000°N, 115.1667°W)
Time: 10:35:10
(UTC+00:00)

TIGRISAT - Visible Passes

Search period start: 30 November 2023 00:00
Search period end: 10 December 2023 00:00
Orbit: 598 x 676 km, 97.7° (Epoch: 29 November)

Date Brightness Start Highest point End Pass type
(mag) Time Alt. Az. Time Alt. Az. Time Alt. Az.
30 Nov ? 01:22:08 10° N 01:26:41 68° WNW 01:31:05 10° SSW visible
30 Nov ? 03:00:11 10° NNW 03:02:20 13° NW 03:04:27 10° W visible
01 Dec ? 00:08:38 10° NNE 00:12:34 28° E 00:16:25 10° SSE visible
01 Dec ? 01:44:54 10° N 01:49:14 44° WNW 01:53:26 10° SW visible
02 Dec ? 00:31:01 10° NNE 00:35:22 44° E 00:39:35 10° S visible
02 Dec ? 02:07:47 10° N 02:11:42 29° WNW 02:15:31 10° WSW visible
03 Dec ? 00:53:32 10° NNE 00:58:04 70° ESE 01:02:28 10° S visible
03 Dec ? 02:30:47 10° N 02:34:05 20° WNW 02:37:20 10° WSW visible
04 Dec ? 01:16:09 10° NNE 01:20:41 75° WNW 01:25:03 10° SSW visible
04 Dec ? 02:54:02 10° NNW 02:56:24 14° NW 02:58:45 10° W visible
05 Dec ? 00:02:44 10° NE 00:06:29 25° E 00:10:08 10° SSE visible
05 Dec ? 01:38:52 10° N 01:43:13 48° WNW 01:47:25 10° SW visible
06 Dec ? 00:25:01 10° NNE 00:29:15 39° E 00:33:21 10° SSE visible
06 Dec ? 02:01:41 10° N 02:05:40 32° WNW 02:09:32 10° SW visible
07 Dec ? 00:47:28 10° NNE 00:51:56 62° ESE 00:56:14 10° S visible
07 Dec ? 02:24:36 10° N 02:28:02 22° WNW 02:31:23 10° WSW visible
08 Dec ? 01:10:02 10° NNE 01:14:31 84° WNW 01:18:52 10° SSW visible
08 Dec ? 02:47:45 10° NNW 02:50:20 15° NW 02:52:51 10° W visible
08 Dec ? 23:56:42 10° NE 00:00:13 23° E 00:03:39 10° SE visible
09 Dec ? 01:32:41 10° N 01:37:02 53° WNW 01:41:15 10° SW visible
09 Dec ? 03:11:39 10° NW 03:12:33 11° NW 03:13:26 10° WNW visible
